Location: Amberg
(48.0613°N, 10.6820°E)
Time: 20:41:04
(UTC+00:00)

Tsikada Rocket - Pass Details

Date: 18 November 2025
Orbit: 957 x 1008 km, 82.9° (Epoch: 10 December)

Event Time Altitude Azimuth Distance (km) Brightness Sun altitude
Rises 16:26:48 0° 349° (N) 3,750 7.0 -8.6°
Reaches altitude 10° 16:29:21 10° 349° (NNW) 2,793 6.3 -9.0°
Maximum altitude 16:35:46 78° 265° (W) 1,028 4.3 -10.0°
Drops below altitude 10° 16:42:05 10° 179° (S) 2,749 6.6 -11.0°
Sets 16:44:34 0° 178° (S) 3,687 7.2 -11.4°
